Weather History for KRQO - August, 2013

Change the Weather History Date:

Tuesday, August 6, 2013

  Actual Average (KOKC) Record (KOKC)
Temperature  
Mean Temperature 86 °F 84 °F  
Max Temperature 100 °F 95 °F 110 °F (2011)
Min Temperature 71 °F 72 °F 56 °F (1894)
Cooling Degree Days 20 19  
Month to date cooling degree days 114  
Year to date cooling degree days 1313  
Growing Degree Days 36 (Base 50)    
Moisture  
Dew Point 62 °F    
Average Humidity 48    
Maximum Humidity 78    
Minimum Humidity 25    
Precipitation  
Precipitation 0.00 in 0.11 in 1.38 in (1965)
Month to date precipitation 0.62  
Year to date precipitation 22.23  
Sea Level Pressure  
Sea Level Pressure 29.84 in    
Wind  
Wind Speed 10 mph (South)    
Max Wind Speed 20 mph    
Max Gust Speed 26 mph    
T = Trace of Precipitation, MM = Missing Value Source: NWS Daily Summary

Daily Weather History Graph

Daily Weather History Graph

Search for Another Location

Airport or City:

Trip Planner

Search our weather history database for the weather conditions in past years. The results will help you decide how hot, cold, wet, or windy it might be!

Date:

Astronomy

Aug. 06, 2013 Rise Set
Actual Time 6:44 AM CDT 8:30 PM CDT
Civil Twilight 6:16 AM CDT 8:58 PM CDT
Nautical Twilight 5:43 AM CDT 9:31 PM CDT
Astronomical Twilight 5:08 AM CDT 10:06 PM CDT
Moon 6:35 AM CDT (8/6) 8:09 PM CDT (8/6)
Length of Visible Light 14h 41m
Length of Day
13h 46m
Waning Crescent, 0% of the Moon is Illuminated
Aug 6
Waning Crescent
Aug 6
New
Aug 14
First Quarter
Aug 20
Full
Aug 28
Last Quarter

Hourly Weather History & Observations

Time (CDT) Temp. Heat Index Dew Point Humidity Pressure Visibility Wind Dir Wind Speed Gust Speed Precip Events Conditions
12:15 AM 80.6 °F 82.3 °F 64.4 °F 58% 29.88 in - SSE 9.2 mph - N/A   Clear
12:35 AM 80.6 °F 82.3 °F 64.4 °F 58% 29.87 in - South 11.5 mph - N/A   Clear
12:55 AM 80.6 °F 82.3 °F 64.4 °F 58% 29.88 in - SSE 8.1 mph - N/A   Clear
1:15 AM 78.8 °F - 64.4 °F 61% 29.88 in - SSE 8.1 mph - N/A   Clear
1:35 AM 77.0 °F - 64.4 °F 65% 29.87 in - South 9.2 mph - N/A   Clear
1:55 AM 78.8 °F - 64.4 °F 61% 29.86 in - South 10.4 mph - N/A   Clear
2:15 AM 78.8 °F - 62.6 °F 57% 29.87 in - South 9.2 mph - N/A   Clear
2:35 AM 78.8 °F - 62.6 °F 57% 29.86 in - South 10.4 mph - N/A   Clear
2:55 AM 78.8 °F - 62.6 °F 57% 29.86 in - South 9.2 mph - N/A   Clear
3:15 AM 77.0 °F - 62.6 °F 61% 29.86 in - South 8.1 mph - N/A   Clear
3:35 AM 75.2 °F - 62.6 °F 65% 29.86 in - South 8.1 mph - N/A   Clear
3:55 AM 73.4 °F - 62.6 °F 69% 29.85 in - South 9.2 mph - N/A   Clear
4:15 AM 73.4 °F - 62.6 °F 69% 29.86 in - South 3.5 mph - N/A   Clear
4:35 AM 71.6 °F - 64.4 °F 78% 29.86 in - North 5.8 mph - N/A   Clear
4:55 AM 77.0 °F - 62.6 °F 61% 29.86 in - Calm Calm - N/A   Clear
5:15 AM 73.4 °F - 62.6 °F 69% 29.86 in - Calm Calm - N/A   Clear
5:35 AM 75.2 °F - 62.6 °F 65% 29.86 in - South 5.8 mph - N/A   Clear
5:55 AM 73.4 °F - 62.6 °F 69% 29.86 in - SSW 4.6 mph - N/A   Clear
6:15 AM 73.4 °F - 62.6 °F 69% 29.86 in - South 6.9 mph - N/A   Clear
6:35 AM 73.4 °F - 62.6 °F 69% 29.87 in - South 5.8 mph - N/A   Clear
6:55 AM 73.4 °F - 62.6 °F 69% 29.87 in - South 5.8 mph - N/A   Clear
7:15 AM 73.4 °F - 62.6 °F 69% 29.87 in - South 6.9 mph - N/A   Clear
7:35 AM 73.4 °F - 62.6 °F 69% 29.87 in - South 6.9 mph - N/A   Clear
7:55 AM 77.0 °F - 62.6 °F 61% 29.87 in - South 5.8 mph - N/A   Clear
8:15 AM 78.8 °F - 62.6 °F 57% 29.86 in - South 4.6 mph - N/A   Clear
8:35 AM 78.8 °F - 62.6 °F 57% 29.86 in - South 8.1 mph - N/A   Clear
8:55 AM 80.6 °F 81.8 °F 62.6 °F 54% 29.86 in - South 10.4 mph - N/A   Clear
9:15 AM 82.4 °F 83.4 °F 62.6 °F 51% 29.86 in - South 9.2 mph - N/A   Clear
9:35 AM 84.2 °F 85.0 °F 62.6 °F 48% 29.85 in - South 13.8 mph - N/A   Clear
9:55 AM 86.0 °F 86.6 °F 62.6 °F 45% 29.85 in - South 16.1 mph - N/A   Clear
10:15 AM 87.8 °F 88.5 °F 62.6 °F 43% 29.86 in - SSW 12.7 mph - N/A   Clear
10:35 AM 87.8 °F 88.5 °F 62.6 °F 43% 29.86 in - SSW 12.7 mph - N/A   Clear
10:55 AM 89.6 °F 90.1 °F 62.6 °F 40% 29.86 in - SSW 11.5 mph - N/A   Clear
11:15 AM 91.4 °F 92.1 °F 62.6 °F 38% 29.86 in - SW 13.8 mph 18.4 mph N/A   Clear
11:35 AM 93.2 °F 94.1 °F 62.6 °F 36% 29.86 in - SW 11.5 mph - N/A   Clear
11:55 AM 95.0 °F 95.2 °F 60.8 °F 32% 29.86 in - SW 15.0 mph 19.6 mph N/A   Clear
12:15 PM 95.0 °F 95.2 °F 60.8 °F 32% 29.87 in - SSW 11.5 mph - N/A   Clear
12:35 PM 96.8 °F 97.1 °F 60.8 °F 30% 29.86 in - SSW 13.8 mph - N/A   Clear
12:55 PM 96.8 °F 98.0 °F 62.6 °F 32% 29.86 in - SSW 10.4 mph 18.4 mph N/A   Clear
1:15 PM 96.8 °F 98.0 °F 62.6 °F 32% 29.86 in - SSW 12.7 mph 18.4 mph N/A   Clear
1:35 PM 96.8 °F 98.0 °F 62.6 °F 32% 29.85 in - South 12.7 mph 18.4 mph N/A   Clear
1:55 PM 96.8 °F 98.0 °F 62.6 °F 32% 29.85 in - SSW 13.8 mph 18.4 mph N/A   Clear
2:15 PM 96.8 °F 98.0 °F 62.6 °F 32% 29.85 in - SSW 13.8 mph 17.3 mph N/A   Clear
2:35 PM 98.6 °F 101.0 °F 64.4 °F 32% 29.84 in - South 13.8 mph - N/A   Clear
2:55 PM 98.6 °F 100.0 °F 62.6 °F 30% 29.83 in - South 16.1 mph 20.7 mph N/A   Clear
3:15 PM 98.6 °F 99.4 °F 60.8 °F 29% 29.83 in - South 19.6 mph 24.2 mph N/A   Clear
3:35 PM 98.6 °F 99.4 °F 60.8 °F 29% 29.82 in - South 18.4 mph 26.5 mph N/A   Clear
3:55 PM 100.4 °F 101.3 °F 60.8 °F 27% 29.81 in - South 15.0 mph 21.9 mph N/A   Clear
4:15 PM 100.4 °F 100.2 °F 59.0 °F 25% 29.81 in - South 13.8 mph - N/A   Clear
4:35 PM 100.4 °F 100.2 °F 59.0 °F 25% 29.81 in - South 16.1 mph 24.2 mph N/A   Clear
4:55 PM 98.6 °F 98.5 °F 59.0 °F 27% 29.80 in - South 16.1 mph - N/A   Clear
5:15 PM 98.6 °F 98.5 °F 59.0 °F 27% 29.79 in - South 16.1 mph 23.0 mph N/A   Clear
5:35 PM 98.6 °F 98.5 °F 59.0 °F 27% 29.79 in - South 18.4 mph - N/A   Clear
5:55 PM 98.6 °F 98.5 °F 59.0 °F 27% 29.79 in - South 16.1 mph 20.7 mph N/A   Clear
6:15 PM 98.6 °F 99.4 °F 60.8 °F 29% 29.79 in - SSE 15.0 mph 23.0 mph N/A   Clear
6:35 PM 96.8 °F 96.2 °F 59.0 °F 28% 29.78 in - South 15.0 mph - N/A   Clear
6:55 PM 96.8 °F 96.2 °F 59.0 °F 28% 29.78 in - SSE 11.5 mph - N/A   Clear
7:15 PM 95.0 °F 95.2 °F 60.8 °F 32% 29.77 in - SSE 12.7 mph - N/A   Clear
7:35 PM 91.4 °F 92.1 °F 62.6 °F 38% 29.77 in - SSE 10.4 mph - N/A   Clear
7:55 PM 89.6 °F 90.1 °F 62.6 °F 40% 29.78 in - SSE 10.4 mph - N/A   Clear
8:15 PM 86.0 °F 86.6 °F 62.6 °F 45% 29.78 in - SE 8.1 mph - N/A   Clear
8:35 PM 84.2 °F 85.6 °F 64.4 °F 51% 29.78 in - SE 9.2 mph - N/A   Clear
8:55 PM 82.4 °F 83.9 °F 64.4 °F 54% 29.79 in - SE 8.1 mph - N/A   Clear
9:15 PM 80.6 °F 82.7 °F 66.2 °F 61% 29.80 in - SE 9.2 mph - N/A   Clear
9:35 PM 80.6 °F 82.7 °F 66.2 °F 61% 29.80 in - SE 11.5 mph - N/A   Clear
9:55 PM 84.2 °F 85.6 °F 64.4 °F 51% 29.80 in - SSE 12.7 mph - N/A   Clear
10:15 PM 84.2 °F 85.0 °F 62.6 °F 48% 29.81 in - SSE 11.5 mph - N/A   Clear
10:35 PM 84.2 °F 85.0 °F 62.6 °F 48% 29.82 in - SSE 11.5 mph - N/A   Clear
10:55 PM 82.4 °F 83.4 °F 62.6 °F 51% 29.83 in - SSE 10.4 mph - N/A   Clear
11:15 PM 82.4 °F 83.4 °F 62.6 °F 51% 29.83 in - SSE 11.5 mph - N/A   Clear
11:35 PM 82.4 °F 83.4 °F 62.6 °F 51% 29.83 in - SSE 11.5 mph - N/A   Clear
11:55 PM 82.4 °F 83.4 °F 62.6 °F 51% 29.83 in - South 11.5 mph - N/A   Clear